Weather History for Lancaster, OH

Change the Weather History Date:

Sunday, April 13, 2014

  Actual Average Record
Temperature  
Mean Temperature 66 °F -  
Max Temperature 79 °F 61 °F 85 °F (1941)
Min Temperature 52 °F 36 °F 18 °F (1957)
Growing Degree Days 16 (Base 50)    
Moisture  
Dew Point 50 °F    
Average Humidity 54    
Maximum Humidity 83    
Minimum Humidity 35    
Precipitation  
Precipitation 0.00 in - - ()
Sea Level Pressure  
Sea Level Pressure 29.89 in    
Wind  
Wind Speed 8 mph (SSW)    
Max Wind Speed 23 mph    
Max Gust Speed 32 mph    
Visibility 10 miles    
Events      
Averages and records for this station are not official NWS values.
T = Trace of Precipitation, MM = Missing Value Source: NWS Daily Summary

Daily Weather History Graph

Daily Weather History Graph

Search for Another Location

Airport:

Trip Planner

Search our weather history database for the weather conditions in past years. The results will help you decide how hot, cold, wet, or windy it might be!

Date:

Astronomy

Apr. 13, 2014 Rise Set
Actual Time 6:56 AM EDT 8:06 PM EDT
Civil Twilight 6:28 AM EDT 8:34 PM EDT
Nautical Twilight 5:55 AM EDT 9:07 PM EDT
Astronomical Twilight 5:20 AM EDT 9:42 PM EDT
Moon 6:43 PM EDT (4/13) 5:54 AM EDT (4/13)
Length of Visible Light 14h 06m
Length of Day
13h 10m
Waxing Gibbous, 97% of the Moon is Illuminated
Apr 13
Waxing Gibbous
Apr 15
Full
Apr 22
Last Quarter
Apr 29
New
May 6
First Quarter

Hourly Weather History & Observations

Time (EDT) Temp. Dew Point Humidity Pressure Visibility Wind Dir Wind Speed Gust Speed Precip Events Conditions
12:53 AM 53.1 °F 46.9 °F 80% 29.91 in 10.0 mi Calm Calm - N/A   Clear
1:53 AM 52.0 °F 46.9 °F 83% 29.91 in 10.0 mi Calm Calm - N/A   Clear
2:53 AM 52.0 °F 46.9 °F 83% 29.91 in 10.0 mi Calm Calm - N/A   Clear
3:53 AM 57.0 °F 46.9 °F 69% 29.92 in 10.0 mi SE 4.6 mph - N/A   Mostly Cloudy
4:53 AM 64.0 °F 48.9 °F 58% 29.91 in 10.0 mi SSW 5.8 mph - N/A   Partly Cloudy
5:53 AM 66.0 °F 50.0 °F 56% 29.93 in 10.0 mi SSW 10.4 mph - N/A   Scattered Clouds
6:53 AM 66.9 °F 50.0 °F 54% 29.96 in 10.0 mi SSW 11.5 mph 20.7 mph N/A   Partly Cloudy
7:53 AM 66.0 °F 51.1 °F 59% 29.97 in 10.0 mi SSW 12.7 mph - N/A   Clear
8:53 AM 69.1 °F 52.0 °F 54% 29.96 in 10.0 mi SSW 13.8 mph 20.7 mph N/A   Clear
9:53 AM 71.1 °F 53.1 °F 53% 29.94 in 10.0 mi SW 23.0 mph 31.1 mph N/A   Clear
10:53 AM 73.0 °F 55.0 °F 53% 29.95 in 10.0 mi SSW 17.3 mph 32.2 mph N/A   Clear
11:53 AM 75.0 °F 54.0 °F 48% 29.94 in 10.0 mi SSW 20.7 mph 32.2 mph N/A   Clear
12:53 PM 77.0 °F 53.1 °F 43% 29.92 in 10.0 mi SSW 21.9 mph 29.9 mph N/A   Clear
1:53 PM 78.1 °F 51.1 °F 39% 29.91 in 10.0 mi SSW 17.3 mph 32.2 mph N/A   Clear
2:53 PM 77.0 °F 50.0 °F 39% 29.90 in 10.0 mi SW 19.6 mph 31.1 mph N/A   Clear
3:53 PM 75.9 °F 50.0 °F 40% 29.88 in 10.0 mi SW 17.3 mph 27.6 mph N/A   Clear
4:53 PM 77.0 °F 51.1 °F 40% 29.87 in 10.0 mi SW 15.0 mph 19.6 mph N/A   Clear
5:53 PM 79.0 °F 48.9 °F 35% 29.84 in 10.0 mi SSW 8.1 mph - N/A   Clear
6:53 PM 77.0 °F 48.0 °F 36% 29.82 in 10.0 mi South 8.1 mph - N/A   Clear
7:53 PM 71.1 °F 50.0 °F 47% 29.81 in 10.0 mi Calm Calm - N/A   Clear
8:53 PM 64.0 °F 52.0 °F 65% 29.80 in 10.0 mi Calm Calm - N/A   Clear
9:53 PM 61.0 °F 52.0 °F 72% 29.79 in 10.0 mi South 3.5 mph - N/A   Clear
10:53 PM 68.0 °F 48.0 °F 49% 29.77 in 10.0 mi South 6.9 mph - N/A   Clear
11:53 PM 71.1 °F 46.9 °F 42% 29.75 in 10.0 mi South 10.4 mph - N/A   Clear